Location: Unspecified
(0.0000°N, 0.0000°E)
Time: 22:24:46
(UTC+00:00)

Courier 1B Rocket - All Passes

Search period start: 29 March 2015 00:00
Search period end: 08 April 2015 00:00
Orbit: 921 x 1202 km, 28.2° (Epoch: 27 March)

Date Brightness Start Highest point End Pass type
(mag) Time Alt. Az. Time Alt. Az. Time Alt. Az.
29 Mar - 04:24:40 10° SSW 04:29:47 19° SSE 04:35:02 10° ESE visible
29 Mar - 06:16:42 10° SW 06:24:15 56° SSE 06:31:24 10° ENE daylight
29 Mar - 08:10:57 10° W 08:18:04 45° NNW 08:24:39 10° NE daylight
29 Mar - 10:08:59 10° NW 10:12:14 13° NNW 10:15:10 10° N daylight
29 Mar - 15:57:09 10° N 15:58:40 11° NNE 16:00:26 10° NE daylight
29 Mar - 17:46:51 10° NW 17:52:42 41° NNE 17:58:53 10° E daylight
29 Mar - 19:39:53 10° WNW 19:46:13 54° SSW 19:52:59 10° SE visible
29 Mar - 21:36:05 10° WSW 21:40:27 17° SSW 21:44:49 10° SSE visible
30 Mar - 03:24:36 10° S 03:28:06 14° SSE 03:31:50 10° SE visible
30 Mar - 05:15:46 10° SW 05:22:55 39° SSE 05:29:51 10° E visible
30 Mar - 07:09:13 10° WSW 07:16:52 68° NNW 07:24:01 10° NE daylight
30 Mar - 09:05:36 10° WNW 09:10:50 20° NNW 09:15:40 10° NNE daylight
30 Mar - 16:46:35 10° NNW 16:51:39 26° NNE 16:56:58 10° E daylight
30 Mar - 18:38:49 10° WNW 18:45:10 82° SSW 18:51:57 10° ESE visible
30 Mar - 20:33:48 10° WSW 20:39:02 24° SSW 20:44:26 10° SSE visible
31 Mar - 04:15:04 10° SSW 04:21:28 27° SSE 04:27:52 10° E visible
31 Mar - 06:07:48 10° WSW 06:15:39 83° SSE 06:23:04 10° ENE daylight
31 Mar - 08:03:01 10° W 08:09:31 30° NNW 08:15:35 10° NNE daylight
31 Mar - 15:46:37 10° NNW 15:50:30 17° NNE 15:54:35 10° ENE daylight
31 Mar - 17:38:02 10° NW 17:44:13 65° NNE 17:50:42 10° ESE daylight
31 Mar - 19:32:00 10° W 19:37:47 34° SSW 19:43:51 10° SE visible
31 Mar - 21:30:26 10° SW 21:32:22 11° SSW 21:34:06 10° S visible
01 Apr - 03:14:39 10° SSW 03:19:54 20° SSE 03:25:21 10° ESE visible
01 Apr - 05:06:39 10° SW 05:14:21 58° SSE 05:21:48 10° ENE visible
01 Apr - 07:00:55 10° W 07:08:15 45° NNW 07:15:09 10° NE daylight
01 Apr - 08:58:53 10° NW 09:02:34 14° NNW 09:05:53 10° N daylight
01 Apr - 14:47:26 10° N 14:49:12 11° NNE 14:51:11 10° NE daylight
01 Apr - 16:37:26 10° NW 16:43:15 41° NNE 16:49:13 10° E daylight
01 Apr - 18:30:36 10° WNW 18:36:41 51° SSW 18:43:06 10° SE visible
01 Apr - 20:27:01 10° WSW 20:30:50 15° SSW 20:34:36 10° SSE visible
02 Apr - 02:14:41 10° S 02:18:14 14° SSE 02:22:05 10° SE visible
02 Apr - 04:05:46 10° SW 04:12:59 40° SSE 04:20:10 10° E visible
02 Apr - 05:59:11 10° WSW 06:06:59 67° NNW 06:14:25 10° NE daylight
02 Apr - 07:55:33 10° WNW 08:01:06 21° NNW 08:06:14 10° NNE daylight
02 Apr - 15:37:05 10° NNW 15:42:12 27° NNE 15:47:26 10° E daylight
02 Apr - 17:29:28 10° WNW 17:35:42 79° SSW 17:42:11 10° SE daylight
02 Apr - 19:24:37 10° WSW 19:29:29 22° SSW 19:34:25 10° SSE visible
03 Apr - 03:05:08 10° SSW 03:11:32 28° SSE 03:18:06 10° E visible
03 Apr - 04:57:48 10° WSW 05:05:42 85° SSE 05:13:24 10° ENE visible
03 Apr - 06:52:59 10° W 06:59:42 31° NNW 07:06:02 10° NNE daylight
03 Apr - 14:36:59 10° NNW 14:41:03 18° NNE 14:45:12 10° ENE daylight
03 Apr - 16:28:36 10° NW 16:34:47 67° NNE 16:41:04 10° ESE daylight
03 Apr - 18:22:45 10° W 18:28:17 32° SSW 18:33:59 10° SE visible
04 Apr - 02:04:49 10° SSW 02:10:00 20° SSE 02:15:29 10° ESE visible
04 Apr - 03:56:42 10° SW 04:04:23 60° SSE 04:12:03 10° ENE visible
04 Apr - 05:50:55 10° W 05:58:21 45° NNW 06:05:30 10° NE daylight
04 Apr - 07:48:46 10° NW 07:52:49 15° NNW 07:56:30 10° N daylight
04 Apr - 13:37:27 10° N 13:39:43 12° NNE 13:42:11 10° NE daylight
04 Apr - 15:27:56 10° NW 15:33:49 42° NNE 15:39:43 10° E daylight
04 Apr - 17:21:14 10° WNW 17:27:14 49° SSW 17:33:22 10° SE daylight
04 Apr - 19:17:59 10° SW 19:21:18 14° SSW 19:24:29 10° S visible
05 Apr - 01:05:01 10° S 01:08:23 14° SSE 01:12:06 10° SE night (unlit)
05 Apr - 02:55:53 10° SW 03:03:01 41° SSE 03:10:20 10° E visible
05 Apr - 04:49:14 10° WSW 04:57:01 66° NNW 05:04:41 10° NE visible
05 Apr - 06:45:32 10° WNW 06:51:16 21° NNW 06:56:39 10° NNE daylight
05 Apr - 14:27:26 10° NNW 14:32:46 28° NNE 14:38:03 10° E daylight
05 Apr - 16:20:02 10° WNW 16:26:17 76° SSW 16:32:35 10° SE daylight
05 Apr - 18:15:24 10° WSW 18:19:59 20° SSW 18:24:33 10° SSE visible
06 Apr - 01:55:21 10° SSW 02:01:37 28° SSE 02:08:11 10° E visible
06 Apr - 03:47:55 10° WSW 03:55:43 87° SSE 04:03:34 10° ENE visible
06 Apr - 05:43:01 10° W 05:49:48 31° NNW 05:56:20 10° NNE daylight
06 Apr - 07:44:03 10° NNW 07:44:41 10° NNW 07:45:01 10° NNW daylight
06 Apr - 13:27:10 10° NNW 13:31:34 19° NNE 13:35:59 10° ENE daylight
06 Apr - 15:19:03 10° NW 15:25:22 70° NNE 15:31:35 10° ESE daylight
06 Apr - 17:13:25 10° W 17:18:50 30° SSW 17:24:17 10° SSE daylight
07 Apr - 00:55:09 10° SSW 01:00:09 20° SSE 01:05:30 10° ESE night (unlit)
07 Apr - 02:46:53 10° SW 02:54:24 61° SSE 03:02:09 10° ENE visible
07 Apr - 04:41:00 10° W 04:48:23 44° NNW 04:55:42 10° NE visible
07 Apr - 06:38:44 10° NW 06:43:00 15° NNW 06:46:54 10° N daylight
07 Apr - 12:27:17 10° N 12:30:13 13° NNE 12:33:16 10° NE daylight
07 Apr - 14:18:15 10° NW 14:24:23 44° NNE 14:30:20 10° E daylight
07 Apr - 16:11:47 10° WNW 16:17:49 47° SSW 16:23:47 10° SE daylight
07 Apr - 18:08:56 10° SW 18:11:49 13° SSW 18:14:31 10° S daylight
